Location: Palo Alto
(37.4420°N, 122.1420°W)
Time: 10:59:30
(UTC-07:00)

ISS - All Passes

Search period start: 31 May 2016 00:00
Search period end: 10 June 2016 00:00
Orbit: 402 x 404 km, 51.6° (Epoch: 31 May)

Date Brightness Start Highest point End Pass type
(mag) Time Alt. Az. Time Alt. Az. Time Alt. Az.
31 May - 02:09:52 10° NNW 02:12:17 19° NNE 02:14:42 10° ENE visible
31 May - 03:45:45 10° WNW 03:48:56 53° SW 03:52:07 10° SE night (unlit)
31 May - 18:49:24 10° SSE 18:50:45 12° SE 18:52:05 10° ESE daylight
31 May - 20:23:35 10° WSW 20:26:48 57° NW 20:30:02 10° NE daylight
31 May - 22:02:30 10° NW 22:03:49 12° NNW 22:05:09 10° N visible
01 Jun - 01:17:38 10° N 01:19:15 13° NNE 01:20:52 10° NE visible
01 Jun - 02:52:56 10° NW 02:56:12 71° NE 02:59:26 10° SE visible
01 Jun - 19:30:48 10° SW 19:34:02 66° SE 19:37:17 10° NE daylight
01 Jun - 21:08:31 10° WNW 21:10:45 17° NNW 21:12:59 10° NNE visible
02 Jun - 02:00:17 10° NW 02:03:21 35° NE 02:06:22 10° ESE visible
02 Jun - 03:37:08 10° W 03:39:36 20° SW 03:42:04 10° S night (unlit)
02 Jun - 18:38:25 10° SSW 18:41:19 30° SE 18:44:14 10° ENE daylight
02 Jun - 20:14:56 10° W 20:17:45 26° NNW 20:20:35 10° NNE daylight
03 Jun - 01:07:47 10° NNW 01:10:23 21° NNE 01:12:59 10° E visible
03 Jun - 02:43:50 10° WNW 02:46:57 41° SW 02:50:02 10° SSE night (unlit)
03 Jun - 17:46:45 10° SSE 17:48:41 15° SE 17:50:37 10° E daylight
03 Jun - 19:21:40 10° WSW 19:24:50 47° NW 19:28:00 10° NE daylight
03 Jun - 21:01:00 10° NW 21:01:55 11° NNW 21:02:51 10° N visible
04 Jun - 00:15:26 10° NNW 00:17:20 14° NNE 00:19:14 10° ENE visible
04 Jun - 01:50:55 10° NW 01:54:11 88° NE 01:57:26 10° SE visible
04 Jun - 18:28:43 10° SW 18:31:59 83° SE 18:35:15 10° NE daylight
04 Jun - 20:06:46 10° WNW 20:08:47 15° NNW 20:10:48 10° NNE daylight
04 Jun - 23:23:33 10° N 23:24:11 10° NNE 23:24:49 10° NNE visible
05 Jun - 00:58:11 10° NW 01:01:19 42° NE 01:04:26 10° ESE visible
05 Jun - 02:35:22 10° W 02:37:30 16° SW 02:39:38 10° S night (unlit)
05 Jun - 17:36:10 10° SSW 17:39:12 37° SE 17:42:16 10° ENE daylight
05 Jun - 19:13:03 10° W 19:15:43 23° NNW 19:18:24 10° NNE daylight
06 Jun - 00:05:36 10° NNW 00:08:21 24° NNE 00:11:05 10° E visible
06 Jun - 01:41:50 10° WNW 01:44:49 33° SW 01:47:47 10° SSE night (unlit)
06 Jun - 16:44:11 10° S 16:46:31 18° SE 16:48:50 10° E daylight
06 Jun - 18:19:39 10° WSW 18:22:44 39° NW 18:25:50 10° NE daylight
06 Jun - 23:13:09 10° NNW 23:15:17 16° NNE 23:17:24 10° ENE visible
07 Jun - 00:48:47 10° NW 00:52:03 74° SW 00:55:17 10° SE visible
07 Jun - 17:26:34 10° SW 17:29:49 79° NW 17:33:06 10° NE daylight
07 Jun - 19:04:57 10° NW 19:06:43 14° NNW 19:08:28 10° N daylight
07 Jun - 22:20:59 10° N 22:22:07 11° NNE 22:23:16 10° NE visible
07 Jun - 23:55:58 10° NW 23:59:10 52° NE 00:02:22 10° ESE visible
08 Jun - 01:33:36 10° W 01:35:16 13° SW 01:36:57 10° SSW night (unlit)
08 Jun - 16:33:51 10° SSW 16:36:59 47° SE 16:40:08 10° ENE daylight
08 Jun - 18:11:04 10° WNW 18:13:34 20° NNW 18:16:06 10° NNE daylight
08 Jun - 23:03:18 10° NNW 23:06:12 28° NNE 23:09:04 10° E visible
09 Jun - 00:39:46 10° WNW 00:42:35 27° SW 00:45:23 10° SSE visible
09 Jun - 15:41:38 10° S 15:44:14 22° SE 15:46:50 10° ENE daylight
09 Jun - 17:17:32 10° W 17:20:32 33° NNW 17:23:32 10° NNE daylight
09 Jun - 22:10:46 10° NNW 22:13:07 18° NNE 22:15:27 10° ENE visible
09 Jun - 23:46:35 10° WNW 23:49:48 59° SW 23:52:59 10° SE visible
